,,,PA_Meas_PMT16A,,PR_Meas_QMR101_102,,RH_Meas_QMH101,,SR_Meas_QMS101,,TA_Meas_QMH101,,GenWind,,GenWind,
date,time,status,PA,status,PR,status,RH,status,SR,status,TA,status,DirAvg,status,SpdAvg,
2012-07-02, 00:00:05,VALID,999.862,VALID,0,VALID,92.7838,VALID,0,VALID,23.0378,VALID,35,VALID,0.223438,
2012-07-02, 00:01:05,VALID,999.875,VALID,0,VALID,92.5015,VALID,0,VALID,23.0183,VALID,35,VALID,0.315234,
2012-07-02, 00:02:05,VALID,999.86,VALID,0,VALID,92.4481,VALID,0,VALID,23.0183,VALID,35,VALID,0.322656,
2012-07-02, 00:03:05,VALID,999.819,VALID,0,VALID,92.532,VALID,0,VALID,23.0183,VALID,35,VALID,0.324219,
2012-07-02, 00:04:05,VALID,999.791,VALID,0,VALID,92.7838,VALID,0,VALID,23.0183,VALID,35,VALID,0.615234,
2012-07-02, 00:05:05,VALID,999.792,VALID,0,VALID,92.944,VALID,0,VALID,23.0378,VALID,35,VALID,0.5,
2012-07-02, 00:06:05,VALID,999.757,VALID,0,VALID,92.8372,VALID,0,VALID,23.0573,VALID,116,VALID,0.687891,
2012-07-02, 00:07:05,VALID,999.766,VALID,0,VALID,92.7762,VALID,0,VALID,23.0573,VALID,112,VALID,0.484766,
2012-07-02, 00:08:05,VALID,999.713,VALID,0,VALID,92.822,VALID,0,VALID,23.0769,VALID,94,VALID,0.285156,
2012-07-02, 00:09:05,VALID,999.731,VALID,0,VALID,92.5778,VALID,0,VALID,23.0751,VALID,94,VALID,0.257422,
2012-07-02, 00:10:05,VALID,999.687,VALID,0,VALID,92.1963,VALID,0,VALID,23.0769,VALID,121,VALID,0.708203,
2012-07-02, 00:11:05,VALID,999.718,VALID,0,VALID,91.7462,VALID,0,VALID,23.0964,VALID,108,VALID,0.991016,
2012-07-02, 00:12:05,VALID,999.692,VALID,0,VALID,91.1663,VALID,0,VALID,23.1354,VALID,108,VALID,0.857422,
2012-07-02, 00:13:05,VALID,999.701,VALID,0,VALID,90.7391,VALID,0,VALID,23.1939,VALID,108,VALID,0.821875,
2012-07-02, 00:14:05,VALID,999.679,VALID,0,VALID,90.3423,VALID,0,VALID,23.2329,VALID,115,VALID,0.965234,
2012-07-02, 00:15:05,VALID,999.658,VALID,0,VALID,90.1516,VALID,0,VALID,23.2915,VALID,110,VALID,0.923828,
2012-07-02, 00:16:05,VALID,999.668,VALID,0,VALID,89.7854,VALID,0,VALID,23.3518,VALID,119,VALID,1.24336,
2012-07-02, 00:17:05,VALID,999.63,VALID,0,VALID,89.381,VALID,0,VALID,23.389,VALID,114,VALID,0.997266,
2012-07-02, 00:18:05,VALID,999.611,VALID,0,VALID,89.114,VALID,0,VALID,23.389,VALID,118,VALID,1.06641,
2012-07-02, 00:19:05,VALID,999.591,VALID,0,VALID,88.9919,VALID,0,VALID,23.3872,VALID,111,VALID,1.08398,
2012-07-02, 00:20:05,VALID,999.601,VALID,0,VALID,88.9156,VALID,0,VALID,23.4085,VALID,114,VALID,1.50937,
2012-07-02, 00:21:05,VALID,999.58,VALID,0,VALID,88.8546,VALID,0,VALID,23.428,VALID,120,VALID,1.72148,
2012-07-02, 00:22:05,VALID,999.558,VALID,0,VALID,88.5189,VALID,0,VALID,23.4866,VALID,130,VALID,2.11016,
2012-07-02, 00:23:05,VALID,999.552,VALID,0,VALID,87.9695,VALID,0,VALID,23.5646,VALID,132,VALID,1.83789,
2012-07-02, 00:24:05,VALID,999.508,VALID,0,VALID,87.5651,VALID,0,VALID,23.6036,VALID,128,VALID,1.68789,
2012-07-02, 00:25:05,VALID,999.472,VALID,0,VALID,87.2752,VALID,0,VALID,23.6427,VALID,130,VALID,1.64961,
2012-07-02, 00:26:05,VALID,999.433,VALID,0,VALID,87.1379,VALID,0,VALID,23.6622,VALID,140,VALID,1.79023,
2012-07-02, 00:27:05,VALID,999.419,VALID,0,VALID,87.0387,VALID,0,VALID,23.6622,VALID,130,VALID,1.55078,
2012-07-02, 00:28:05,VALID,999.429,VALID,0,VALID,86.9548,VALID,0,VALID,23.6427,VALID,139,VALID,1.39609,
2012-07-02, 00:29:05,VALID,999.387,VALID,0,VALID,87.0769,VALID,0,VALID,23.6427,VALID,148,VALID,1.63047,
2012-07-02, 00:30:05,VALID,999.4,VALID,0,VALID,87.0769,VALID,0,VALID,23.6427,VALID,149,VALID,1.38008,
2012-07-02, 00:31:05,VALID,999.348,VALID,0,VALID,87.0387,VALID,0,VALID,23.6427,VALID,130,VALID,0.820703,
2012-07-02, 00:32:05,VALID,999.362,VALID,0,VALID,87.0082,VALID,0,VALID,23.6036,VALID,116,VALID,1.71602,
2012-07-02, 00:33:05,VALID,999.349,VALID,0,VALID,86.9929,VALID,0,VALID,23.5841,VALID,93,VALID,1.13516,
2012-07-02, 00:34:05,VALID,999.374,VALID,0,VALID,87.1455,VALID,0,VALID,23.5451,VALID,117,VALID,1.01758,
2012-07-02, 00:35:05,VALID,999.367,VALID,0,VALID,87.3744,VALID,0,VALID,23.5061,VALID,121,VALID,0.655469,
2012-07-02, 00:36:05,VALID,999.327,VALID,0,VALID,87.6186,VALID,0,VALID,23.4671,VALID,121,VALID,0.640234,
2012-07-02, 00:37:05,VALID,999.276,VALID,0,VALID,87.8017,VALID,0,VALID,23.4475,VALID,97,VALID,0.601172,
2012-07-02, 00:38:05,VALID,999.261,VALID,0,VALID,87.8017,VALID,0,VALID,23.4085,VALID,97,VALID,0.516406,
2012-07-02, 00:39:05,VALID,999.216,VALID,0,VALID,88.1679,VALID,0,VALID,23.389,VALID,81,VALID,0.702344,
2012-07-02, 00:40:05,VALID,999.25,VALID,0,VALID,88.4807,VALID,0,VALID,23.35,VALID,30,VALID,0.324219,
2012-07-02, 00:41:05,VALID,999.242,VALID,0,VALID,88.618,VALID,0,VALID,23.311,VALID,30,VALID,0.476172,
2012-07-02, 00:42:05,VALID,999.247,VALID,0,VALID,88.9003,VALID,0,VALID,23.2719,VALID,30,VALID,0.0726563,
2012-07-02, 00:43:05,VALID,999.216,VALID,0,VALID,89.0453,VALID,0,VALID,23.2329,VALID,30,VALID,0,
2012-07-02, 00:44:05,VALID,999.184,VALID,0,VALID,89.4344,VALID,0,VALID,23.2329,VALID,30,VALID,0.593359,
2012-07-02, 00:45:05,VALID,999.208,VALID,0,VALID,89.5946,VALID,0,VALID,23.2329,VALID,30,VALID,0.439453,
2012-07-02, 00:46:05,VALID,999.178,VALID,0,VALID,89.6786,VALID,0,VALID,23.2134,VALID,30,VALID,0.331641,
2012-07-02, 00:47:05,VALID,999.219,VALID,0,VALID,89.793,VALID,0,VALID,23.1939,VALID,30,VALID,0.280469,
2012-07-02, 00:48:05,VALID,999.174,VALID,0,VALID,89.9609,VALID,0,VALID,23.1744,VALID,30,VALID,0.512891,
2012-07-02, 00:49:05,VALID,999.177,VALID,0,VALID,90.0066,VALID,0,VALID,23.1744,VALID,30,VALID,0.491016,
2012-07-02, 00:50:05,VALID,999.135,VALID,0,VALID,90.0677,VALID,0,VALID,23.1354,VALID,30,VALID,0.199219,
2012-07-02, 00:51:05,VALID,999.117,VALID,0,VALID,90.1592,VALID,0,VALID,23.1159,VALID,30,VALID,0.141016,
2012-07-02, 00:52:05,VALID,999.139,VALID,0,VALID,90.3118,VALID,0,VALID,23.0964,VALID,30,VALID,0.296484,
2012-07-02, 00:53:05,VALID,999.099,VALID,0,VALID,90.411,VALID,0,VALID,23.0964,VALID,30,VALID,0.455078,
2012-07-02, 00:54:05,VALID,999.155,VALID,0,VALID,90.4339,VALID,0,VALID,23.0769,VALID,30,VALID,0.598437,
2012-07-02, 00:55:05,VALID,999.101,VALID,0,VALID,90.6246,VALID,0,VALID,23.0573,VALID,30,VALID,0.697266,
2012-07-02, 00:56:05,VALID,999.121,VALID,0,VALID,90.6857,VALID,0,VALID,23.0964,VALID,30,VALID,0.540625,
2012-07-02, 00:57:05,VALID,999.128,VALID,0,VALID,90.3118,VALID,0,VALID,23.0769,VALID,30,VALID,0.670703,
2012-07-02, 00:58:05,VALID,999.117,VALID,0,VALID,90.0143,VALID,0,VALID,23.0378,VALID,30,VALID,0.740625,
2012-07-02, 00:59:05,VALID,999.104,VALID,0,VALID,90.411,VALID,0,VALID,22.9988,VALID,24,VALID,1.05781,
2012-07-02, 01:00:05,VALID,999.125,VALID,0,VALID,90.4186,VALID,0,VALID,22.9598,VALID,19,VALID,0.716797,
2012-07-02, 01:01:05,VALID,999.155,VALID,0,VALID,90.8383,VALID,0,VALID,22.9208,VALID,19,VALID,0.789844,
2012-07-02, 01:02:05,VALID,999.197,VALID,0,VALID,91.2274,VALID,0,VALID,22.9208,VALID,19,VALID,0.514844,
2012-07-02, 01:03:05,VALID,999.171,VALID,0,VALID,91.1587,VALID,0,VALID,22.8818,VALID,19,VALID,0.522656,
2012-07-02, 01:04:05,VALID,999.15,VALID,0,VALID,91.029,VALID,0,VALID,22.8623,VALID,19,VALID,0.573828,
2012-07-02, 01:05:05,VALID,999.127,VALID,0,VALID,91.1968,VALID,0,VALID,22.8037,VALID,19,VALID,0.930859,
2012-07-02, 01:06:05,VALID,999.099,VALID,0,VALID,91.3647,VALID,0,VALID,22.7452,VALID,19,VALID,0.823828,
2012-07-02, 01:07:05,VALID,999.129,VALID,0,VALID,91.6088,VALID,0,VALID,22.7257,VALID,19,VALID,0.692187,
2012-07-02, 01:08:05,VALID,999.121,VALID,0,VALID,91.586,VALID,0,VALID,22.7079,VALID,19,VALID,0.526172,
2012-07-02, 01:09:05,VALID,999.091,VALID,0,VALID,91.7996,VALID,0,VALID,22.6672,VALID,19,VALID,0.932031,
2012-07-02, 01:10:05,VALID,999.08,VALID,0,VALID,91.9369,VALID,0,VALID,22.6477,VALID,19,VALID,0.719531,
2012-07-02, 01:11:05,VALID,999.059,VALID,0,VALID,92.0514,VALID,0,VALID,22.6282,VALID,19,VALID,0.544922,
2012-07-02, 01:12:05,VALID,999.072,VALID,0,VALID,92.3108,VALID,0,VALID,22.6282,VALID,19,VALID,0.845703,
2012-07-02, 01:13:05,VALID,999.083,VALID,0,VALID,92.4328,VALID,0,VALID,22.6477,VALID,19,VALID,0.621484,
2012-07-02, 01:14:05,VALID,999.071,VALID,0,VALID,92.3947,VALID,0,VALID,22.6477,VALID,19,VALID,0.516016,
2012-07-02, 01:15:05,VALID,999.07,VALID,0,VALID,92.2497,VALID,0,VALID,22.6477,VALID,19,VALID,0.541016,
2012-07-02, 01:16:05,VALID,999.116,VALID,0,VALID,92.0971,VALID,0,VALID,22.6282,VALID,19,VALID,0.169922,
2012-07-02, 01:17:05,VALID,999.133,VALID,0,VALID,92.0514,VALID,0,VALID,22.6087,VALID,19,VALID,0,
2012-07-02, 01:18:05,VALID,999.133,VALID,0,VALID,92.2345,VALID,0,VALID,22.5892,VALID,19,VALID,0.278516,
2012-07-02, 01:19:05,VALID,999.115,VALID,0,VALID,92.5473,VALID,0,VALID,22.5892,VALID,19,VALID,0.241406,
2012-07-02, 01:20:05,VALID,999.095,VALID,0,VALID,92.7228,VALID,0,VALID,22.6087,VALID,19,VALID,0.473828,
2012-07-02, 01:21:05,VALID,999.043,VALID,0,VALID,92.7609,VALID,0,VALID,22.6087,VALID,19,VALID,0.486719,
2012-07-02, 01:22:05,VALID,999.044,VALID,0,VALID,92.7151,VALID,0,VALID,22.6087,VALID,19,VALID,0.265234,
2012-07-02, 01:23:05,VALID,999.019,VALID,0,VALID,92.6923,VALID,0,VALID,22.5892,VALID,19,VALID,0.0738281,
2012-07-02, 01:24:05,VALID,998.994,VALID,0,VALID,92.6694,VALID,0,VALID,22.5696,VALID,19,VALID,0,
2012-07-02, 01:25:05,VALID,998.96,VALID,0,VALID,92.7533,VALID,0,VALID,22.5892,VALID,19,VALID,0,
2012-07-02, 01:26:05,VALID,998.98,VALID,0,VALID,92.9135,VALID,0,VALID,22.5892,VALID,19,VALID,0,
2012-07-02, 01:27:05,VALID,998.902,VALID,0,VALID,93.0432,VALID,0,VALID,22.6087,VALID,19,VALID,0.217969,
2012-07-02, 01:28:05,VALID,998.891,VALID,0,VALID,93.1577,VALID,0,VALID,22.6087,VALID,19,VALID,0.167187,
2012-07-02, 01:29:05,VALID,998.86,VALID,0,VALID,93.1729,VALID,0,VALID,22.6282,VALID,19,VALID,0.121094,
2012-07-02, 01:30:05,VALID,998.854,VALID,0,VALID,93.1805,VALID,0,VALID,22.6087,VALID,19,VALID,0.276563,
2012-07-02, 01:31:05,VALID,998.859,VALID,0,VALID,93.2568,VALID,0,VALID,22.5874,VALID,19,VALID,0.435547,
2012-07-02, 01:32:05,VALID,998.841,VALID,0,VALID,93.3103,VALID,0,VALID,22.6282,VALID,19,VALID,0.586719,
2012-07-02, 01:33:05,VALID,998.828,VALID,0,VALID,93.3408,VALID,0,VALID,22.5874,VALID,19,VALID,0.699609,
2012-07-02, 01:34:05,VALID,998.833,VALID,0,VALID,93.3713,VALID,0,VALID,22.6087,VALID,19,VALID,0.533594,
2012-07-02, 01:35:05,VALID,998.867,VALID,0,VALID,93.356,VALID,0,VALID,22.6087,VALID,19,VALID,0.121875,
2012-07-02, 01:36:05,VALID,998.91,VALID,0,VALID,93.2797,VALID,0,VALID,22.5679,VALID,19,VALID,0.0046875,
2012-07-02, 01:37:05,VALID,998.913,VALID,0,VALID,93.089,VALID,0,VALID,22.5306,VALID,19,VALID,0.342578,
2012-07-02, 01:38:05,VALID,998.899,VALID,0,VALID,93.0814,VALID,0,VALID,22.4721,VALID,19,VALID,0.285547,
2012-07-02, 01:39:05,VALID,998.884,VALID,0,VALID,93.2492,VALID,0.104696,VALID,22.4331,VALID,19,VALID,0.485156,
2012-07-02, 01:40:05,VALID,998.899,VALID,0,VALID,93.5849,VALID,0,VALID,22.4331,VALID,19,VALID,0.565625,
2012-07-02, 01:41:05,VALID,998.9,VALID,0,VALID,93.7375,VALID,0,VALID,22.4136,VALID,19,VALID,0.858594,
2012-07-02, 01:42:05,VALID,998.913,VALID,0,VALID,93.7146,VALID,0,VALID,22.3746,VALID,19,VALID,0.572266,
2012-07-02, 01:43:05,VALID,998.934,VALID,0,VALID,93.7757,VALID,0,VALID,22.3356,VALID,19,VALID,0.298438,
2012-07-02, 01:44:05,VALID,998.924,VALID,0,VALID,93.7604,VALID,0,VALID,22.2966,VALID,19,VALID,0.410156,
2012-07-02, 01:45:05,VALID,998.89,VALID,0,VALID,93.9283,VALID,0,VALID,22.2771,VALID,19,VALID,0.433594,
2012-07-02, 01:46:05,VALID,998.882,VALID,0,VALID,94.1724,VALID,0,VALID,22.2966,VALID,19,VALID,0.420703,
2012-07-02, 01:47:05,VALID,998.865,VALID,0,VALID,94.3479,VALID,0,VALID,22.3161,VALID,19,VALID,0.487109,
2012-07-02, 01:48:05,VALID,998.876,VALID,0,VALID,94.4471,VALID,0,VALID,22.2966,VALID,19,VALID,0.289453,
2012-07-02, 01:49:05,VALID,998.814,VALID,0,VALID,94.47,VALID,0,VALID,22.2966,VALID,19,VALID,0.277734,
2012-07-02, 01:50:05,VALID,998.776,VALID,0,VALID,94.4776,VALID,0,VALID,22.2771,VALID,19,VALID,0.363281,
2012-07-02, 01:51:05,VALID,998.773,VALID,0,VALID,94.5691,VALID,0,VALID,22.2576,VALID,19,VALID,0.180078,
2012-07-02, 01:52:05,VALID,998.733,VALID,0,VALID,94.6607,VALID,0,VALID,22.2559,VALID,19,VALID,0.373437,
2012-07-02, 01:53:05,VALID,998.73,VALID,0,VALID,94.7141,VALID,0,VALID,22.2576,VALID,19,VALID,0.138672,
2012-07-02, 01:54:05,VALID,998.702,VALID,0,VALID,94.7523,VALID,0,VALID,22.2381,VALID,19,VALID,0,
2012-07-02, 01:55:05,VALID,998.673,VALID,0,VALID,94.737,VALID,0,VALID,22.2186,VALID,19,VALID,0,
2012-07-02, 01:56:05,VALID,998.68,VALID,0,VALID,94.7675,VALID,0,VALID,22.2186,VALID,19,VALID,0,
2012-07-02, 01:57:05,VALID,998.642,VALID,0,VALID,94.7599,VALID,0,VALID,22.199,VALID,19,VALID,0,
2012-07-02, 01:58:05,VALID,998.635,VALID,0,VALID,94.798,VALID,0,VALID,22.1795,VALID,19,VALID,0,
2012-07-02, 01:59:05,VALID,998.654,VALID,0,VALID,94.8285,VALID,0,VALID,22.199,VALID,19,VALID,0,
2012-07-02, 02:00:05,VALID,998.653,VALID,0,VALID,94.8896,VALID,0,VALID,22.199,VALID,19,VALID,0.336719,
2012-07-02, 02:01:05,VALID,998.661,VALID,0,VALID,94.943,VALID,0,VALID,22.199,VALID,19,VALID,0.246875,
2012-07-02, 02:02:05,VALID,998.666,VALID,0,VALID,94.9888,VALID,0,VALID,22.2186,VALID,19,VALID,0,
2012-07-02, 02:03:05,VALID,998.644,VALID,0,VALID,95.0422,VALID,0,VALID,22.2381,VALID,19,VALID,0.312109,
2012-07-02, 02:04:05,VALID,998.657,VALID,0,VALID,95.0803,VALID,0,VALID,22.2186,VALID,19,VALID,0.292188,
2012-07-02, 02:05:05,VALID,998.629,VALID,0,VALID,95.088,VALID,0,VALID,22.2576,VALID,19,VALID,0.392969,
2012-07-02, 02:06:05,VALID,998.61,VALID,0,VALID,95.0651,VALID,0,VALID,22.2788,VALID,19,VALID,0.431641,
2012-07-02, 02:07:05,VALID,998.577,VALID,0,VALID,95.0193,VALID,0,VALID,22.2381,VALID,19,VALID,0.371484,
2012-07-02, 02:08:05,VALID,998.575,VALID,0,VALID,94.9583,VALID,0,VALID,22.2186,VALID,19,VALID,0.663281,
2012-07-02, 02:09:05,VALID,998.583,VALID,0,VALID,94.882,VALID,0,VALID,22.2397,VALID,19,VALID,0.638281,
2012-07-02, 02:10:05,VALID,998.593,VALID,0,VALID,94.7675,VALID,0,VALID,22.199,VALID,19,VALID,0.741406,
2012-07-02, 02:11:05,VALID,998.559,VALID,0,VALID,94.6607,VALID,0,VALID,22.2202,VALID,19,VALID,0.719922,
2012-07-02, 02:12:05,VALID,998.61,VALID,0,VALID,94.6073,VALID,0,VALID,22.199,VALID,19,VALID,0.770703,
2012-07-02, 02:13:05,VALID,998.589,VALID,0,VALID,94.5539,VALID,0.104696,VALID,22.16,VALID,354,VALID,0.833594,
2012-07-02, 02:14:05,VALID,998.616,VALID,0,VALID,94.47,VALID,0,VALID,22.1405,VALID,356,VALID,1.00469,
2012-07-02, 02:15:05,VALID,998.652,VALID,0,VALID,94.2945,VALID,0,VALID,22.082,VALID,357,VALID,0.803906,
2012-07-02, 02:16:05,VALID,998.609,VALID,0,VALID,94.2029,VALID,0,VALID,22.0235,VALID,357,VALID,0.655078,
2012-07-02, 02:17:05,VALID,998.642,VALID,0,VALID,94.3097,VALID,0,VALID,22.0252,VALID,357,VALID,0.378125,
2012-07-02, 02:18:04,VALID,998.627,VALID,0,VALID,94.47,VALID,0,VALID,22.004,VALID,357,VALID,0.279297,
2012-07-02, 02:19:04,VALID,998.617,VALID,0,VALID,94.5997,VALID,0,VALID,22.0235,VALID,357,VALID,0.288281,
2012-07-02, 02:20:04,VALID,998.621,VALID,0,VALID,94.6683,VALID,0,VALID,22.004,VALID,357,VALID,0.28125,
2012-07-02, 02:21:04,VALID,998.589,VALID,0,VALID,94.6683,VALID,0,VALID,21.965,VALID,357,VALID,0.433203,
2012-07-02, 02:22:04,VALID,998.568,VALID,0,VALID,94.6607,VALID,0,VALID,21.926,VALID,357,VALID,0.15,
2012-07-02, 02:23:04,VALID,998.577,VALID,0,VALID,94.7446,VALID,0,VALID,21.9065,VALID,357,VALID,0,
2012-07-02, 02:24:04,VALID,998.549,VALID,0,VALID,94.8438,VALID,0,VALID,21.926,VALID,357,VALID,0.135547,
2012-07-02, 02:25:04,VALID,998.519,VALID,0,VALID,94.9583,VALID,0,VALID,21.926,VALID,357,VALID,0.470703,
2012-07-02, 02:26:04,VALID,998.518,VALID,0,VALID,94.9964,VALID,0,VALID,21.926,VALID,357,VALID,0.251563,
2012-07-02, 02:27:04,VALID,998.515,VALID,0,VALID,95.0498,VALID,0,VALID,21.9065,VALID,357,VALID,0.185156,
2012-07-02, 02:28:04,VALID,998.507,VALID,0,VALID,95.088,VALID,0,VALID,21.9065,VALID,357,VALID,0,
2012-07-02, 02:29:04,VALID,998.488,VALID,0,VALID,95.0956,VALID,0,VALID,21.8675,VALID,357,VALID,0,
2012-07-02, 02:30:04,VALID,998.505,VALID,0,VALID,95.1185,VALID,0,VALID,21.8675,VALID,357,VALID,0,
2012-07-02, 02:31:04,VALID,998.518,VALID,0,VALID,95.1566,VALID,0,VALID,21.887,VALID,357,VALID,0.270703,
2012-07-02, 02:32:04,VALID,998.483,VALID,0,VALID,95.2634,VALID,0,VALID,21.9277,VALID,357,VALID,0.261719,
2012-07-02, 02:33:04,VALID,998.487,VALID,0,VALID,95.2863,VALID,0,VALID,21.926,VALID,357,VALID,0.267578,
2012-07-02, 02:34:04,VALID,998.502,VALID,0,VALID,95.3474,VALID,0,VALID,21.9455,VALID,357,VALID,0.277734,
2012-07-02, 02:35:04,VALID,998.518,VALID,0,VALID,95.3855,VALID,0,VALID,21.9845,VALID,357,VALID,0.187109,
2012-07-02, 02:36:04,VALID,998.491,VALID,0,VALID,95.3779,VALID,0,VALID,21.9845,VALID,357,VALID,0.0945313,
2012-07-02, 02:37:04,VALID,998.478,VALID,0,VALID,95.4084,VALID,0,VALID,21.9862,VALID,357,VALID,0.194141,
2012-07-02, 02:38:04,VALID,998.461,VALID,0,VALID,95.416,VALID,0,VALID,21.9845,VALID,357,VALID,0.467578,
2012-07-02, 02:39:04,VALID,998.5,VALID,0,VALID,95.3855,VALID,0,VALID,21.9065,VALID,357,VALID,0.624609,
2012-07-02, 02:40:04,VALID,998.522,VALID,0,VALID,95.3168,VALID,0,VALID,21.848,VALID,357,VALID,0.444922,
2012-07-02, 02:41:04,VALID,998.532,VALID,0,VALID,95.355,VALID,0,VALID,21.9082,VALID,27,VALID,0.914844,
2012-07-02, 02:42:04,VALID,998.554,VALID,0,VALID,95.3855,VALID,0,VALID,21.9065,VALID,30,VALID,0.658984,
2012-07-02, 02:43:04,VALID,998.544,VALID,0,VALID,95.4237,VALID,0,VALID,21.9472,VALID,30,VALID,0.546484,
2012-07-02, 02:44:04,VALID,998.539,VALID,0,VALID,95.4237,VALID,0,VALID,21.9065,VALID,30,VALID,0.441016,
2012-07-02, 02:45:04,VALID,998.555,VALID,0,VALID,95.416,VALID,0,VALID,21.848,VALID,75,VALID,0.944141,
2012-07-02, 02:46:04,VALID,998.557,VALID,0,VALID,95.3168,VALID,0,VALID,21.809,VALID,77,VALID,0.970312,
2012-07-02, 02:47:04,VALID,998.538,VALID,0,VALID,95.2177,VALID,0,VALID,21.7505,VALID,69,VALID,0.896094,
2012-07-02, 02:48:04,VALID,998.528,VALID,0,VALID,95.0574,VALID,0,VALID,21.731,VALID,80,VALID,1.00742,
2012-07-02, 02:49:04,VALID,998.541,VALID,0,VALID,94.943,VALID,0,VALID,21.7115,VALID,80,VALID,1.30313,
2012-07-02, 02:50:04,VALID,998.529,VALID,0,VALID,94.8896,VALID,0,VALID,21.731,VALID,79,VALID,1.47852,
2012-07-02, 02:51:04,VALID,998.531,VALID,0,VALID,94.8667,VALID,0,VALID,21.731,VALID,79,VALID,1.10977,
2012-07-02, 02:52:04,VALID,998.514,VALID,0,VALID,94.798,VALID,0,VALID,21.7115,VALID,79,VALID,1.03633,
2012-07-02, 02:53:04,VALID,998.537,VALID,0,VALID,94.8057,VALID,0,VALID,21.7521,VALID,79,VALID,1.33633,
2012-07-02, 02:54:04,VALID,998.519,VALID,0,VALID,94.798,VALID,0,VALID,21.731,VALID,84,VALID,1.09883,
2012-07-02, 02:55:04,VALID,998.505,VALID,0,VALID,94.798,VALID,0,VALID,21.731,VALID,84,VALID,1.06055,
2012-07-02, 02:56:04,VALID,998.468,VALID,0,VALID,94.7904,VALID,0,VALID,21.7505,VALID,84,VALID,0.988281,
2012-07-02, 02:57:04,VALID,998.461,VALID,0,VALID,94.8133,VALID,0,VALID,21.7911,VALID,104,VALID,0.980469,
2012-07-02, 02:58:04,VALID,998.458,VALID,0,VALID,94.8285,VALID,0,VALID,21.8285,VALID,106,VALID,0.761719,
2012-07-02, 02:59:04,VALID,998.445,VALID,0,VALID,94.8514,VALID,0,VALID,21.8675,VALID,106,VALID,1.20547,
2012-07-02, 03:00:04,VALID,998.47,VALID,0,VALID,94.9277,VALID,0,VALID,21.9667,VALID,106,VALID,1.55508,
2012-07-02, 03:01:04,VALID,998.48,VALID,0,VALID,94.943,VALID,0,VALID,22.004,VALID,107,VALID,1.51992,
2012-07-02, 03:02:04,VALID,998.484,VALID,0,VALID,94.8514,VALID,0,VALID,22.1032,VALID,107,VALID,1.10625,
2012-07-02, 03:03:04,VALID,998.474,VALID,0,VALID,94.7904,VALID,0,VALID,22.1405,VALID,105,VALID,1.18438,
2012-07-02, 03:04:04,VALID,998.457,VALID,0,VALID,94.7294,VALID,0,VALID,22.16,VALID,96,VALID,0.828516,
2012-07-02, 03:05:04,VALID,998.439,VALID,0,VALID,94.5768,VALID,0,VALID,22.16,VALID,96,VALID,0.614062,
2012-07-02, 03:06:04,VALID,998.461,VALID,0,VALID,94.4318,VALID,0,VALID,22.16,VALID,96,VALID,0.266406,
2012-07-02, 03:07:04,VALID,998.452,VALID,0,VALID,94.2868,VALID,0,VALID,22.1405,VALID,96,VALID,0.514063,
2012-07-02, 03:08:04,VALID,998.433,VALID,0,VALID,94.1953,VALID,0,VALID,22.1617,VALID,96,VALID,0.596484,
2012-07-02, 03:09:04,VALID,998.445,VALID,0,VALID,94.1037,VALID,0,VALID,22.121,VALID,96,VALID,0.740625,
2012-07-02, 03:10:04,VALID,998.449,VALID,0,VALID,94.0045,VALID,0,VALID,22.1422,VALID,96,VALID,0.569922,
2012-07-02, 03:11:04,VALID,998.448,VALID,0,VALID,93.9588,VALID,0,VALID,22.1422,VALID,96,VALID,0.435547,
2012-07-02, 03:12:04,VALID,998.438,VALID,0,VALID,93.8596,VALID,0,VALID,22.121,VALID,96,VALID,0.142578,
2012-07-02, 03:13:04,VALID,998.427,VALID,0,VALID,93.6536,VALID,0,VALID,22.1405,VALID,96,VALID,0.544141,
2012-07-02, 03:14:04,VALID,998.436,VALID,0,VALID,93.6841,VALID,0,VALID,22.16,VALID,96,VALID,0.754687,
2012-07-02, 03:15:04,VALID,998.439,VALID,0,VALID,93.5468,VALID,0,VALID,22.1795,VALID,96,VALID,0.892578,
2012-07-02, 03:16:04,VALID,998.433,VALID,0,VALID,93.5086,VALID,0,VALID,22.1812,VALID,81,VALID,1.00352,
2012-07-02, 03:17:04,VALID,998.441,VALID,0,VALID,93.4171,VALID,0,VALID,22.1795,VALID,81,VALID,0.960547,
2012-07-02, 03:18:04,VALID,998.403,VALID,0,VALID,93.1348,VALID,0,VALID,22.1795,VALID,56,VALID,0.818359,
2012-07-02, 03:19:04,VALID,998.407,VALID,0,VALID,92.3871,VALID,0,VALID,22.082,VALID,33,VALID,1.20859,
2012-07-02, 03:20:04,VALID,998.394,VALID,0,VALID,92.1506,VALID,0,VALID,22.004,VALID,32,VALID,0.882031,
2012-07-02, 03:21:04,VALID,998.374,VALID,0,VALID,92.3031,VALID,0,VALID,21.926,VALID,32,VALID,1.28594,
2012-07-02, 03:22:04,VALID,998.371,VALID,0,VALID,92.5397,VALID,0,VALID,21.8496,VALID,31,VALID,1.31523,
2012-07-02, 03:23:04,VALID,998.382,VALID,0,VALID,92.8677,VALID,0,VALID,21.77,VALID,31,VALID,1.24258,
2012-07-02, 03:24:04,VALID,998.363,VALID,0,VALID,93.0356,VALID,0,VALID,21.7115,VALID,31,VALID,1.13359,
2012-07-02, 03:25:04,VALID,998.347,VALID,0,VALID,93.1424,VALID,0,VALID,21.6936,VALID,31,VALID,1.27148,
2012-07-02, 03:26:04,VALID,998.35,VALID,0,VALID,93.4247,VALID,0,VALID,21.6741,VALID,21,VALID,1.30625,
2012-07-02, 03:27:04,VALID,998.328,VALID,0,VALID,93.5773,VALID,0,VALID,21.6335,VALID,21,VALID,1.24883,
2012-07-02, 03:28:04,VALID,998.341,VALID,0,VALID,93.8138,VALID,0,VALID,21.6335,VALID,21,VALID,0.893359,
2012-07-02, 03:29:04,VALID,998.337,VALID,0,VALID,93.8214,VALID,0,VALID,21.614,VALID,21,VALID,0.842578,
2012-07-02, 03:30:04,VALID,998.354,VALID,0,VALID,93.9817,VALID,0,VALID,21.614,VALID,21,VALID,0.476953,
2012-07-02, 03:31:04,VALID,998.322,VALID,0,VALID,94.1495,VALID,0,VALID,21.6335,VALID,21,VALID,0.507422,
2012-07-02, 03:32:04,VALID,998.301,VALID,0,VALID,94.3021,VALID,0,VALID,21.6725,VALID,21,VALID,0.478125,
2012-07-02, 03:33:04,VALID,998.318,VALID,0,VALID,94.3555,VALID,0,VALID,21.6513,VALID,21,VALID,0.428125,
2012-07-02, 03:34:04,VALID,998.337,VALID,0,VALID,94.3326,VALID,0,VALID,21.692,VALID,21,VALID,0.112891,
2012-07-02, 03:35:04,VALID,998.351,VALID,0,VALID,94.3479,VALID,0,VALID,21.731,VALID,21,VALID,0,
2012-07-02, 03:36:04,VALID,998.36,VALID,0,VALID,94.3326,VALID,0,VALID,21.77,VALID,21,VALID,0.412109,
2012-07-02, 03:37:04,VALID,998.335,VALID,0,VALID,94.2563,VALID,0,VALID,21.7716,VALID,21,VALID,1.00859,
2012-07-02, 03:38:04,VALID,998.409,VALID,0,VALID,94.0274,VALID,0,VALID,21.7521,VALID,41,VALID,1.31406,
2012-07-02, 03:39:04,VALID,998.437,VALID,0,VALID,93.8291,VALID,0,VALID,21.7505,VALID,41,VALID,0.966016,
2012-07-02, 03:40:04,VALID,998.481,VALID,0,VALID,93.6078,VALID,0,VALID,21.7716,VALID,41,VALID,0.559375,
2012-07-02, 03:41:04,VALID,998.525,VALID,0,VALID,93.4476,VALID,0,VALID,21.7115,VALID,41,VALID,1.05898,
2012-07-02, 03:42:04,VALID,998.531,VALID,0,VALID,93.44,VALID,0,VALID,21.692,VALID,41,VALID,1.01406,
2012-07-02, 03:43:04,VALID,998.568,VALID,0,VALID,93.4705,VALID,0.104696,VALID,21.6936,VALID,41,VALID,0.528516,
2012-07-02, 03:44:04,VALID,998.54,VALID,0,VALID,93.4705,VALID,0,VALID,21.6335,VALID,41,VALID,0.780078,
2012-07-02, 03:45:04,VALID,998.532,VALID,0,VALID,93.6231,VALID,0,VALID,21.5945,VALID,41,VALID,0.987109,
2012-07-02, 03:46:04,VALID,998.596,VALID,0,VALID,93.8138,VALID,0,VALID,21.5945,VALID,41,VALID,0.905078,
2012-07-02, 03:47:04,VALID,998.568,VALID,0,VALID,93.9511,VALID,0,VALID,21.575,VALID,41,VALID,0.55,